Location: Most
(50.5133°N, 13.6207°E)
Time: 19:12:06
(UTC+02:00)

ISS - Pass Details

Date: 15 May 2019
Orbit: 407 x 410 km, 51.6° (Epoch: 23 May)

Event Time Altitude Azimuth Distance (km) Brightness Sun altitude
Exits shadow 03:51:23 - 284° (WNW) 2,341 -0.2 -11.3°
Rises 03:51:23 0° 284° (WNW) 2,341 -0.2 -11.3°
Reaches altitude 10° 03:53:29 10° 284° (WNW) 1,478 -1.3 -11.1°
Maximum altitude 03:56:47 84° 198° (SSW) 418 -3.9 -10.8°
Drops below altitude 10° 04:00:06 10° 108° (ESE) 1,476 -0.7 -10.4°
Sets 04:02:11 0° 108° (ESE) 2,336 0.4 -10.2°
